Date String (YYYY-MM-DD hh:mm:ss) UTC,Instrument flags,Ambient pressure (hPa),Sample flow (lpm),Bypass flow (lpm),Sample temperature (°C),Ambient temperature (°C),ASC tube jacket temperature (°C),LED temperature (°C),Box temperature (°C),Sample RH (%),Span deviation,Mass concentration (μg/m³),Mass concentration (μg/m³),Mass concentration (μg/m³)
DateTimeUTC,F1_M11,P_M11,Q1_M11,Q2_M11,T1_M11,T2_M11,T3_M11,T4_M11,T5_M11,U1_M11,ZSPAN_M11,X0_M11,X2_M11,X1_M11
2022-04-29 20:00:00,,0816.4,4.98,0.00,26.4,25.4,00.0,35.5,28.2,04.5,0000.0,0014.26,0004.21,0002.74
2022-04-29 20:01:00,,0816.7,5.01,0.00,26.4,25.4,00.0,35.5,28.1,04.4,0000.0,0014.01,0004.26,0002.77
2022-04-29 20:02:00,,0816.5,4.99,0.00,26.4,25.4,00.0,35.5,28.1,04.4,0000.0,0014.02,0004.30,0002.79
2022-04-29 20:03:00,,0816.4,5.02,0.00,26.5,25.4,00.0,35.5,28.2,04.4,0000.0,0013.07,0004.25,0002.81
2022-04-29 20:04:00,,0816.4,4.99,0.00,26.5,25.4,00.0,35.5,28.2,04.2,0000.0,0012.76,0004.28,0002.79
2022-04-29 20:05:00,,0816.4,4.99,0.00,26.4,25.4,00.0,35.5,28.2,04.1,0000.0,0010.98,0004.18,0002.76
2022-04-29 20:06:00,,0816.5,5.01,0.00,26.4,25.4,00.0,35.5,28.2,04.2,0000.0,0009.81,0004.10,0002.76
2022-04-29 20:07:00,,0816.5,4.98,0.00,26.4,25.4,00.0,35.5,28.2,04.1,0000.0,0009.35,0004.09,0002.73
2022-04-29 20:08:00,,0816.5,5.01,0.00,26.4,25.4,00.0,35.4,28.2,04.0,0000.0,0009.16,0004.08,0002.71
2022-04-29 20:09:00,,0816.5,4.99,0.00,26.5,25.4,00.0,35.4,28.2,04.1,0000.0,0009.13,0004.08,0002.68
2022-04-29 20:10:00,,0816.5,5.01,0.00,26.5,25.4,00.0,35.4,28.2,04.0,0000.0,0008.51,0004.05,0002.67
2022-04-29 20:11:00,,0816.4,4.99,0.00,26.5,25.4,00.0,35.4,28.3,04.1,0000.0,0008.37,0004.00,0002.64
2022-04-29 20:12:00,,0816.4,5.00,0.00,26.5,25.4,00.0,35.4,28.3,04.1,0000.0,0008.27,0003.99,0002.66
2022-04-29 20:13:00,,0816.5,5.01,0.00,26.5,25.5,00.0,35.5,28.2,04.0,0000.0,0008.14,0003.96,0002.66
2022-04-29 20:14:00,,0816.6,4.99,0.00,26.5,25.5,00.0,35.5,28.2,03.8,0000.0,0008.12,0003.93,0002.66
2022-04-29 20:15:00,,0816.6,5.02,0.00,26.5,25.5,00.0,35.5,28.2,04.1,0000.0,0007.91,0003.87,0002.68
2022-04-29 20:16:00,,0816.5,4.99,0.00,26.5,25.4,00.0,35.5,28.3,04.1,0000.0,0008.10,0003.91,0002.71
2022-04-29 20:17:00,,0816.5,5.00,0.00,26.5,25.5,00.0,35.5,28.2,04.1,0000.0,0008.37,0003.94,0002.71
2022-04-29 20:18:00,,0816.2,5.01,0.00,26.5,25.5,00.0,35.5,28.3,04.0,0000.0,0008.59,0003.89,0002.72
2022-04-29 20:19:00,,0816.4,5.00,0.00,26.5,25.5,00.0,35.5,28.3,03.9,0000.0,0008.89,0003.88,0002.72
2022-04-29 20:20:00,,0816.4,4.99,0.00,26.5,25.5,00.0,35.5,28.3,03.9,0000.0,0009.78,0003.90,0002.74
2022-04-29 20:21:00,,0816.6,5.00,0.00,26.5,25.5,00.0,35.5,28.3,03.9,0000.0,0010.18,0003.93,0002.76
2022-04-29 20:22:00,,0816.3,5.00,0.00,26.5,25.5,00.0,35.5,28.3,04.1,0000.0,0010.17,0003.92,0002.77
2022-04-29 20:23:00,,0816.3,5.00,0.00,26.5,25.5,00.0,35.5,28.4,04.3,0000.0,0010.78,0003.96,0002.76
2022-04-29 20:24:00,,0816.3,5.02,0.00,26.5,25.5,00.0,35.5,28.4,04.4,0000.0,0011.54,0003.97,0002.78
2022-04-29 20:25:00,,0816.3,4.98,0.00,26.5,25.5,00.0,35.5,28.4,04.4,0000.0,0012.51,0004.00,0002.81
2022-04-29 20:26:00,,0816.5,5.00,0.00,26.5,25.5,00.0,35.5,28.3,04.2,0000.0,0012.84,0004.04,0002.84
2022-04-29 20:27:00,,0816.4,5.01,0.00,26.5,25.5,00.0,35.5,28.3,04.3,0000.0,0012.66,0004.01,0002.86
2022-04-29 20:28:00,,0816.4,4.98,0.00,26.5,25.5,00.0,35.5,28.3,04.3,0000.0,0012.49,0004.01,0002.89
2022-04-29 20:29:00,,0816.4,5.01,0.00,26.5,25.5,00.0,35.5,28.3,04.4,0000.0,0012.46,0004.09,0002.95
2022-04-29 20:30:00,,0816.5,5.01,0.00,26.5,25.5,00.0,35.5,28.3,04.3,0000.0,0012.16,0004.13,0003.01
2022-04-29 20:31:00,,0816.3,4.99,0.00,26.6,25.5,00.0,35.5,28.3,04.4,0000.0,0011.38,0004.12,0003.03
2022-04-29 20:32:00,,0816.2,5.02,0.00,26.6,25.5,00.0,35.5,28.3,04.3,0000.0,0010.91,0004.10,0003.04
2022-04-29 20:33:00,,0816.4,4.99,0.00,26.6,25.5,00.0,35.5,28.3,04.3,0000.0,0010.88,0004.11,0003.07
2022-04-29 20:34:00,,0816.3,5.00,0.00,26.6,25.6,00.0,35.5,28.3,04.4,0000.0,0010.43,0004.09,0003.09
2022-04-29 20:35:00,,0816.4,5.02,0.00,26.6,25.6,00.0,35.5,28.4,04.7,0000.0,0010.00,0004.05,0003.10
2022-04-29 20:36:00,,0816.5,5.00,0.00,26.6,25.6,00.0,35.5,28.4,04.8,0000.0,0008.92,0004.02,0003.09
2022-04-29 20:37:00,,0816.5,5.00,0.00,26.6,25.6,00.0,35.5,28.3,04.8,0000.0,0008.51,0004.00,0003.07
2022-04-29 20:38:00,,0816.7,5.00,0.00,26.6,25.5,00.0,35.5,28.3,05.0,0000.0,0008.51,0004.02,0003.06
2022-04-29 20:39:00,,0816.3,4.99,0.00,26.6,25.6,00.0,35.5,28.4,05.3,0000.0,0008.51,0004.01,0003.05
2022-04-29 20:40:00,,0816.4,5.01,0.00,26.6,25.6,00.0,35.5,28.4,05.6,0000.0,0008.77,0004.01,0003.02
2022-04-29 20:41:00,,0816.4,4.99,0.00,26.6,25.6,00.0,35.5,28.4,05.7,0000.0,0008.66,0003.95,0002.99
2022-04-29 20:42:00,,0816.5,4.99,0.00,26.6,25.6,00.0,35.5,28.4,05.9,0000.0,0008.82,0003.97,0002.99
2022-04-29 20:43:00,,0816.5,5.02,0.00,26.6,25.6,00.0,35.5,28.4,06.4,0000.0,0008.75,0003.96,0002.97
2022-04-29 20:44:00,,0816.6,4.99,0.00,26.6,25.6,00.0,35.5,28.4,06.7,0000.0,0008.80,0003.96,0002.94
2022-04-29 20:45:00,,0816.7,5.01,0.00,26.6,25.6,00.0,35.6,28.4,06.9,0000.0,0008.66,0003.90,0002.89
2022-04-29 20:46:00,,0816.5,4.99,0.00,26.6,25.6,00.0,35.6,28.4,07.6,0000.0,0008.31,0003.89,0002.87
2022-04-29 20:47:00,,0816.5,5.00,0.00,26.6,25.6,00.0,35.6,28.4,08.0,0000.0,0008.51,0003.95,0002.82
2022-04-29 20:48:00,,0817.0,5.01,0.00,26.6,25.6,00.0,35.6,28.4,08.4,0000.0,0008.61,0003.95,0002.75
2022-04-29 20:49:00,,0817.0,4.98,0.00,26.6,25.6,00.0,35.6,28.3,08.4,0000.0,0008.55,0003.92,0002.67
2022-04-29 20:50:00,,0817.1,5.02,0.00,26.6,25.6,00.0,35.6,28.3,08.6,0000.0,0008.57,0003.86,0002.58
2022-04-29 20:51:00,,0817.0,4.99,0.00,26.6,25.6,00.0,35.6,28.4,08.7,0000.0,0008.08,0003.75,0002.49
2022-04-29 20:52:00,,0817.0,5.01,0.00,26.6,25.6,00.0,35.6,28.4,08.5,0000.0,0008.18,0003.71,0002.41
2022-04-29 20:53:00,,0816.9,5.01,0.00,26.6,25.6,00.0,35.6,28.4,08.2,0000.0,0008.26,0003.70,0002.34
2022-04-29 20:54:00,,0816.9,5.00,0.00,26.6,25.6,00.0,35.6,28.4,08.0,0000.0,0008.20,0003.67,0002.28
2022-04-29 20:55:00,,0816.5,4.99,0.00,26.6,25.6,00.0,35.6,28.4,08.1,0000.0,0008.20,0003.64,0002.24
2022-04-29 20:56:00,,0816.7,5.01,0.00,26.6,25.6,00.0,35.6,28.5,07.3,0000.0,0008.61,0003.75,0002.21
2022-04-29 20:57:00,,0817.2,4.99,0.00,26.7,25.7,00.0,35.6,28.5,06.9,0000.0,0009.01,0003.76,0002.16
2022-04-29 20:58:00,,0816.4,4.98,0.00,26.7,25.6,00.0,35.6,28.5,07.0,0000.0,0010.12,0003.66,0002.12
2022-04-29 20:59:00,,0816.5,5.00,0.00,26.7,25.7,00.0,35.6,28.5,06.5,0000.0,0011.44,0003.62,0002.10
